Flag for Germany Weather past 2 weeks in Neustadt am Rübenberge, Lower Saxony, Germany

Now
37 °F

Chilly.


Feels Like: 28 °F
Forecast: 38 / 42 °F
Wind: 15 mph from Southwest

Location: Wunstorf Airport

Current Time: Apr 2, 2015 at 12:16:32 AM

Latest Report: Apr 1, 2015 at 11:20 PM


Visibility: 4 mi

Pressure: 29.89 "Hg

Humidity: 87%

Dew point: 34 °F

Location of Neustadt am RübenbergeLocation

Historic Weather in Neustadt am Rübenberge — Graph

°F

Neustadt am Rübenberge temperature yesterday

Maximum temperature yesterday: 45 °F (at 2:20 PM)
Minimum temperature yesterday: 36 °F (at 3:20 AM)
Average temperature yesterday: 39 °F

Past Weeks' High & Low Weather Summary

 TemperatureHumidityPressure
High61 °F (Mar 25, 4:20 PM)100% (Mar 21, 1:20 AM)30.39 "Hg (Mar 21, 1:20 AM)
Low27 °F (Mar 23, 5:20 AM)33% (Mar 19, 5:20 PM)29.06 "Hg (Mar 31, 6:55 AM)
Average43 °F76%29.89 "Hg
* Reported Mar 17 9:20 PM — Apr 1 10:20 PM, Neustadt am Rübenberge, Weather by CustomWeather, © 2015

Note: Actual official high and low records may vary slightly from our data, if they occured in-between our weather recording intervals... More about our weather records

Advertising

Neustadt am Rübenberge weather history for previous 24 hours

 ConditionsComfort  
Time TempWeatherWind HumidityBarometerVisibility
10:20 PM
Wed, Apr 1
37 °FChilly.10 mph87%29.92 "Hg4 mi
9:20 PM37 °FChilly.21 mph81%29.92 "Hg4 mi
8:50 PM39 °FPartly sunny.22 mph75%29.95 "HgN/A
8:20 PM37 °FBroken clouds.13 mph93%29.95 "HgN/A
7:20 PM36 °FSprinkles. Broken clouds.18 mph93%29.92 "Hg3 mi
6:50 PM37 °FSprinkles. Partly sunny.17 mph93%29.92 "Hg3 mi
6:20 PM39 °FScattered showers. Partly sunny.10 mph87%29.89 "HgN/A
5:20 PM37 °FSprinkles. Partly sunny.21 mph87%29.89 "Hg4 mi
4:20 PM41 °FSprinkles. Broken clouds.21 mph66%29.89 "HgN/A
3:20 PM43 °FScattered showers. Broken clouds.18 mph61%29.89 "HgN/A
2:20 PM45 °FScattered showers. Broken clouds.23 mph66%29.89 "HgN/A
1:20 PM43 °FScattered showers. Broken clouds.17 mph66%29.86 "HgN/A
12:20 PM43 °FSprinkles. Partly sunny.35 mph61%29.86 "HgN/A
11:20 AM43 °FScattered showers. Partly sunny.24 mph71%29.83 "HgN/A
10:20 AM41 °FScattered showers. Partly sunny.25 mph76%29.80 "HgN/A
9:20 AM39 °FBroken clouds.21 mph81%29.80 "HgN/A
8:20 AM37 °FPartly sunny.20 mph87%29.77 "HgN/A
7:20 AM37 °FSprinkles. Passing clouds.23 mph87%29.74 "Hg6 mi
6:45 AM37 °FSprinkles. Passing clouds.17 mph87%29.71 "Hg4 mi
6:20 AM37 °FPassing clouds.28 mph81%29.71 "HgN/A
5:20 AM37 °FPartly cloudy.18 mph81%29.68 "HgN/A
4:20 AM39 °FPassing clouds.20 mph75%29.65 "HgN/A
3:20 AM36 °FPassing clouds.18 mph93%29.65 "HgN/A
2:20 AM39 °FPartly cloudy.22 mph75%29.62 "HgN/A
1:20 AM37 °FPassing clouds.21 mph87%29.62 "HgN/A
12:20 AM41 °FPassing clouds.21 mph70%29.59 "HgN/A
Weather by CustomWeather, © 2015

See weather overviewHow to use our weather pages